EW9945 Weather Reports


Display with metric or nautical units.
time (UTC)temp
F
wind
direction
speed
MPH
gust
MPH
rain 1hr
in
rain 24hr
in
rain mn
in
humidity
%
barometer
mb
20260507020005 46 328 0.0 0.0 0.00 0.44 0.35 92 1011.4
20260507014511 46 328 0.0 0.0 0.00 0.44 0.35 92 1011.4
20260507013011 46 328 0.0 0.0 0.00 0.44 0.35 92 1011.2
20260507011505 46 328 0.0 0.0 0.00 0.44 0.35 92 1011.5
20260507010007 46 328 0.0 0.0 0.00 0.44 0.35 92 1011.4
20260507004502 46 328 0.0 0.0 0.00 0.44 0.35 92 1010.8
20260507003001 46 328 0.0 0.0 0.00 0.44 0.35 91 1010.8
20260507001611 46 328 0.0 0.0 0.00 0.44 0.35 91 1010.3
20260507000059 47 328 0.0 0.0 0.00 0.44 0.35 91 1010.1
20260506234600 47 328 0.0 0.0 0.00 0.44 0.35 91 1010.2
20260506233059 47 328 0.0 0.0 0.00 0.44 0.35 91 1009.9
20260506231609 47 328 0.0 0.0 0.00 0.44 0.35 91 1009.8
20260506230111 47 328 0.0 0.0 0.00 0.44 0.35 90 1009.8
20260506224555 47 328 0.0 0.0 0.00 0.44 0.35 91 1009.8
20260506223053 47 328 0.0 0.0 0.00 0.44 0.35 91 1009.5
20260506221610 47 328 0.0 1.0 0.00 0.44 0.35 91 1009.5
20260506220108 47 328 0.0 0.0 0.00 0.44 0.35 91 1009.3
20260506214551 47 328 3.0 7.0 0.00 0.44 0.35 90 1009.2
20260506213105 48 345 1.0 4.0 0.00 0.44 0.35 90 1008.9
20260506211548 48 350 0.0 4.0 0.00 0.44 0.35 89 1008.7
20260506210054 48 350 0.0 5.0 0.00 0.47 0.35 89 1008.6
20260506204546 48 342 2.0 6.0 0.00 0.47 0.35 90 1008.4
20260506203045 48 344 0.0 3.0 0.00 0.47 0.35 90 1008.4
20260506201547 48 344 1.0 7.0 0.00 0.47 0.35 90 1008.1
20260506200043 48 333 2.0 9.0 0.00 0.47 0.35 90 1007.7
20260506194543 48 317 1.0 9.0 0.00 0.47 0.35 90 1007.8
20260506193041 48 5 0.0 8.0 0.00 0.47 0.35 90 1007.6
20260506191540 48 355 1.0 4.0 0.00 0.47 0.35 91 1007.4
20260506190040 47 22 0.0 6.0 0.01 0.54 0.35 92 1007.3
20260506184542 47 9 3.0 10.0 0.01 0.54 0.35 92 1007.3
20260506183039 46 325 6.0 12.0 0.02 0.54 0.35 92 1007.3
20260506181539 46 342 3.0 7.0 0.03 0.54 0.35 92 1007.1
20260506180039 46 339 1.0 7.0 0.02 0.53 0.34 92 1006.8
20260506174536 46 309 5.0 9.0 0.07 0.53 0.34 92 1006.6
20260506173031 47 55 0.0 0.0 0.09 0.52 0.33 92 1006.3
20260506171539 46 55 0.0 0.0 0.08 0.51 0.32 92 1006.1
20260506170033 46 348 0.0 8.0 0.08 0.51 0.32 92 1006.2
20260506164529 46 294 6.0 12.0 0.04 0.47 0.28 91 1006.1
20260506163025 48 332 6.0 11.0 0.00 0.43 0.24 89 1005.8
20260506161520 54 296 5.0 11.0 0.00 0.43 0.24 89 1005.2
20260506160019 56 134 0.0 3.0 0.00 0.43 0.24 91 1004.9
20260506154520 56 134 0.0 3.0 0.00 0.43 0.24 91 1004.8
20260506153016 56 152 0.0 7.0 0.00 0.43 0.24 91 1004.5
20260506151521 56 185 0.0 5.0 0.00 0.43 0.24 91 1004.5
20260506150017 55 135 0.0 7.0 0.00 0.43 0.24 91 1004.4
20260506144516 55 110 1.0 10.0 0.00 0.43 0.24 91 1004.6
20260506143018 55 138 2.0 11.0 0.01 0.43 0.24 91 1004.6
20260506141514 56 128 1.0 10.0 0.02 0.43 0.24 91 1004.2
20260506140017 55 132 3.0 12.0 0.03 0.43 0.24 91 1004.1
20260506134510 55 127 1.0 9.0 0.05 0.43 0.24 91 1004.3
20260506133006 55 123 2.0 13.0 0.06 0.42 0.23 91 1004.4
20260506131507 55 148 0.0 4.0 0.08 0.41 0.22 91 1004.7
20260506130008 55 149 0.0 4.0 0.09 0.40 0.21 91 1004.7
20260506124506 55 155 2.0 10.0 0.09 0.39 0.20 91 1004.6
20260506123006 55 138 1.0 9.0 0.07 0.36 0.17 91 1005.0
20260506121505 55 121 0.0 8.0 0.07 0.34 0.15 91 1005.2
20260506120004 55 133 1.0 11.0 0.05 0.31 0.12 90 1005.2
20260506114508 55 102 3.0 11.0 0.05 0.30 0.11 90 1004.7
20260506113001 55 118 2.0 11.0 0.05 0.28 0.10 90 1004.5
20260506111600 55 123 2.0 9.0 0.04 0.28 0.09 90 1004.5
20260506110058 55 115 2.0 10.0 0.04 0.27 0.08 90 1004.5
20260506104604 55 155 0.0 8.0 0.02 0.25 0.06 90 1004.5
20260506103054 55 109 2.0 8.0 0.03 0.25 0.06 90 1004.6
20260506101552 55 84 1.0 5.0 0.05 0.24 0.05 90 1004.8
20260506100105 55 158 1.0 7.0 0.06 0.26 0.04 90 1004.9
20260506094551 55 117 2.0 5.0 0.06 0.26 0.04 90 1004.7
20260506093048 55 57 0.0 3.0 0.06 0.25 0.03 89 1004.8
20260506091552 55 167 0.0 4.0 0.05 0.22 0.00 88 1004.9
20260506090046 55 162 0.0 5.0 0.05 0.21 0.21 88 1005.2
20260506084545 55 267 0.0 2.0 0.05 0.20 0.20 88 1005.2
20260506083047 55 71 0.0 2.0 0.05 0.19 0.19 88 1005.3
20260506081545 55 175 0.0 8.0 0.05 0.18 0.18 90 1005.5
20260506073043 52 158 0.0 0.0 0.01 0.14 0.14 90 1005.7
20260506071547 52 157 0.0 0.0 0.00 0.13 0.13 90 1005.6
20260506061539 53 158 0.0 2.0 0.00 0.13 0.13 89 1005.9
20260506044540 55 158 0.0 0.0 0.00 0.13 0.13 86 1006.9
20260506043031 55 158 0.0 0.0 0.00 0.13 0.13 86 1006.8
20260506041530 56 158 0.0 0.0 0.00 0.13 0.13 85 1006.9
20260506040030 56 158 0.0 0.0 0.00 0.13 0.13 85 1006.7
20260506034530 57 158 0.0 0.0 0.00 0.13 0.13 84 1006.7
20260506033035 57 158 0.0 0.0 0.00 0.13 0.13 83 1006.7
20260506031534 57 158 0.0 2.0 0.00 0.13 0.13 84 1007.1
20260506030054 58 158 2.0 4.0 0.00 0.13 0.13 84 1006.8
20260506024534 58 164 0.0 0.0 0.00 0.13 0.13 85 1007.0
20260506023030 58 165 0.0 0.0 0.00 0.13 0.13 86 1007.0
20260506021531 58 165 0.0 0.0 0.00 0.13 0.13 87 1007.0